Printer-friendly version
Follow the MPC on Twitter Follow the MPC on Facebook The MPC blog
Minor Planet Center

MPEC 2009-H83 : 2009 HV77

The following Minor Planet Electronic Circular may be linked-to from your own Web pages, but must not otherwise be redistributed electronically.

A form allowing access to any MPEC is at the bottom of this page.


Read MPEC 2009-H82 Read MPEC 2009-J01


M.P.E.C. 2009-H83                                Issued 2009 Apr. 30, 14:09 UT

     The Minor Planet Electronic Circulars contain information on unusual
         minor planets and routine data on comets.  They are published
   on behalf of Commission 20 of the International Astronomical Union by the
          Minor Planet Center, Smithsonian Astrophysical Observatory,
                          Cambridge, MA 02138, U.S.A.

             Prepared using the Tamkin Foundation Computer Network

                              MPC@CFA.HARVARD.EDU
          URL http://www.cfa.harvard.edu/iau/mpc.html  ISSN 1523-6714

                                   2009 HV77

Observations:
     K09H77V  C2009 04 20.35627 14 17 31.41 -10 57 33.9          19.7 V EH083G96
     K09H77V  C2009 04 20.36323 14 17 30.98 -10 57 33.6          19.9 V EH083G96
     K09H77V  C2009 04 20.37015 14 17 30.48 -10 57 33.5          19.6 V EH083G96
     K09H77V  C2009 04 20.37704 14 17 30.04 -10 57 33.1          19.8 V EH083G96
     K09H77V  C2009 04 27.29879 14 09 36.68 -10 53 03.1          19.4 V EH083G96
     K09H77V  C2009 04 27.30602 14 09 36.03 -10 53 03.0          19.4 V EH083G96
     K09H77V  C2009 04 27.31317 14 09 35.46 -10 53 02.6          19.4 V EH083G96
     K09H77V  C2009 04 27.32032 14 09 34.81 -10 53 02.1          19.3 V EH083G96
     K09H77V* C2009 04 29.94348 14 06 05.28 -10 51 49.9          19.0 V EH083J75
     K09H77V  C2009 04 29.95689 14 06 04.02 -10 51 49.1          19.4 V EH083J75
     K09H77V  C2009 04 29.97027 14 06 02.93 -10 51 48.8          19.1 V EH083J75
     K09H77V  C2009 04 30.10985 14 05 50.20 -10 51 44.0          19.7 V EH083J75
     K09H77V  C2009 04 30.11911 14 05 49.39 -10 51 43.9          19.6 V EH083J75
     K09H77V  C2009 04 30.12720 14 05 48.64 -10 51 44.1          19.5 V EH083J75

Observer details:
G96 Mt. Lemmon Survey.  Observers A. R. Gibbs, R. E. Hill.  Measurers
    E. C. Beshore, A. Boattini, G. J. Garradd, A. R. Gibbs, A. D. Grauer,
    R. E. Hill, R. A. Kowalski, S. M. Larson, R. H. McNaught.  1.5-m reflector
    + CCD.
J75 OAM Observatory, La Sagra.  Observers S. Sanchez, J. Nomen, R. Stoss,
    W. K. Y. Yeung, J. Rodriguez, A. Cikota, S. Cikota.  0.40-m f/10 reflector
    + CCD, 0.45-m f/2.8 reflector + CCD.

Orbital elements:
2009 HV77                                                Earth MOID = 0.0524 AU
Epoch 2009 June 18.0 TT = JDT 2455000.5                 MPC
M 348.18448              (2000.0)            P               Q
n   0.37184587     Peri.  245.85853     +0.38727709     +0.92119463
a   1.9152585      Node    46.98165     -0.82609778     +0.36484693
e   0.4567234      Incl.    2.95113     -0.40936403     +0.13523010
P   2.65           H   20.6           G   0.15           U   8
Residuals in seconds of arc
090420 G96  0.2-  0.0     090427 G96  0.3-  0.0     090429 J75  0.9+  0.1-
090420 G96  0.3+  0.0     090427 G96  0.4+  0.1+    090430 J75  0.2+  0.5+
090420 G96  0.2-  0.2-    090427 G96  0.2-  0.4+    090430 J75  0.5+  0.3+
090420 G96  0.0   0.1-    090429 J75  0.5-  0.8-    090430 J75  0.0   0.2-
090427 G96  0.2+  0.1+    090429 J75  1.1-  0.2-

Ephemeris:
2009 HV77                a,e,i = 1.92, 0.46, 3                   q = 1.0405
Date    TT    R. A. (2000) Decl.     Delta      r     Elong.  Phase     V
2009 04 29    14 07.37   -10 51.9    0.355    1.360   174.4     4.1    19.4
2009 05 09    13 52.44   -10 53.1    0.302    1.300   161.6    14.2    19.4
2009 05 19    13 36.14   -11 15.1    0.262    1.242   148.3    25.3    19.3
2009 05 29    13 21.16   -12 14.4    0.230    1.188   135.6    36.7    19.3
2009 06 08    13 10.08   -14 09.7    0.202    1.141   124.1    47.5    19.2
2009 06 18    13 04.23   -17 19.8    0.176    1.100   114.3    57.3    19.1
2009 06 28    13 04.68   -22 15.3    0.150    1.069   106.7    65.6    18.9
2009 07 08    13 13.40   -29 53.7    0.123    1.049   101.9    71.5    18.7
2009 07 18    13 37.49   -42 00.1    0.0978   1.041   101.8    72.9    18.2
2009 07 28    14 55.67   -60 06.0    0.0790   1.045   109.7    66.2    17.5
2009 08 07    19 37.89   -68 10.2    0.0760   1.061   126.4    50.3    17.0
2009 08 17    22 17.91   -50 10.9    0.0935   1.088   142.7    34.3    17.1
2009 08 27    22 56.50   -35 03.9    0.127    1.126   153.9    23.3    17.5
2009 09 06    23 09.91   -25 29.6    0.171    1.171   160.8    16.4    18.0
2009 09 16    23 15.95   -19 14.0    0.225    1.223   162.9    14.0    18.6
2009 09 26    23 20.14   -14 48.9    0.290    1.279   159.7    15.8    19.3
2009 10 06    23 24.83   -11 27.1    0.367    1.339   153.8    19.3    20.0
2009 10 16    23 30.80   -08 43.2    0.456    1.401   146.9    22.9    20.7
2009 10 26    23 38.36   -06 21.3    0.557    1.464   139.8    26.0    21.3
2009 11 05    23 47.52   -04 12.6    0.670    1.528   132.8    28.4    21.9

Timothy B. Spahr             (C) Copyright 2009 MPC           M.P.E.C. 2009-H83

Read MPEC 2009-H82 Read MPEC 2009-J01


MPEC number:

Enter an MPEC number in one of the following forms:

  • 1997-B01 (the full form)
  • J97B01 (the packed version of the full form)
  • B01 (the abbreviated form)

Valid HTML 4.01!